Vorticity
-2 7 8 2 2 7 10 11 10 8 7 2 6 11 13 10 10 11 12 11 10 10 11 11 9 9 9 10 7 6 7 7
-1 7 3 1 2 8 4 9 6 2 9 18 14 13 13 12 10 6 4 9 12 14 8 7 8 8 10 7 6 4 3 8
17 21 14 7 11 13 13 14 9 12 14 9 6 9 10 11 12 12 8 6 10 12 10 12 11 13 1 2 6 13 7 16
2 8 9 6 1 -7 17 15 15 9 7 8 8 7 9 7 7 8 8 6 12 10 9 13 3 -0 3 7 9 3 6 6
2 7 8 11 -18 9 -12 21 4 1 7 6 4 6 7 5 7 8 9 5 6 15 8 0 0 11 -2 8 6 -2 2 3
1 7 12 -4 -5 14 -11 -3 20 3 14 11 8 8 9 7 9 7 8 8 12 14 13 1 8 1 15 -16 1 28 12 2
7 6 1 14 -2 13 2 4 7 5 21 13 10 6 6 5 5 10 10 10 9 8 3 0 -10 -15 -17 20 -6 -24 -3 3
6 15 12 15 1 2 -13 4 0 8 13 14 10 5 3 -1 2 8 7 9 7 15 20 14 9 -3 8 1 -13 17 22 13
0 7 11 9 11 13 18 -10 2 4 19 20 14 12 15 15 7 7 7 7 7 2 5 17 -1 11 -3 8 34 13 4 9
3 13 17 4 6 10 4 1 9 15 6 20 18 11 10 18 16 14 9 8 2 5 11 13 9 28 20 21 9 13 8 8
-6 2 1 5 -2 13 4 12 13 -4 20 -3 8 14 13 15 13 12 11 9 11 14 27 26 19 14 16 16 7 6 7 10
24 21 22 13 0 -18 2 14 3 14 5 12 19 8 14 14 19 19 13 15 20 18 21 6 17 19 9 5 5 8 8 14
4 4 -1 0 -22 8 5 6 8 15 11 1 9 12 22 20 20 15 13 24 10 8 12 24 11 6 7 6 7 9 15 15
5 10 13 -0 21 22 6 10 20 10 4 11 13 25 14 17 17 18 12 7 12 25 7 8 8 9 7 10 14 13 14 10
7 -22 14 5 7 13 15 9 -4 11 13 13 19 15 12 17 9 16 10 8 14 6 5 8 8 11 13 12 14 11 7 7
-1 24 19 16 17 13 11 14 16 14 18 12 2 20 12 8 12 11 11 10 7 4 5 7 12 12 11 10 7 8 13 14
-5 16 9 15 12 8 9 14 16 28 9 7 24 4 9 7 38 4 17 5 3 6 9 12 11 11 7 10 15 14 9 8
1 18 15 12 6 11 10 17 16 24 11 13 19 11 5 16 4 12 8 6 9 11 13 10 9 9 16 13 10 8 10 9
5 17 5 9 15 12 11 18 23 25 26 17 13 24 12 16 9 6 9 8 14 10 10 9 13 15 11 9 12 8 16 24
Height
3140 3139 3138 3136 3135 3134 3131 3128 3126 3123 3122 3119 3115 3112 3109 3105 3102 3100 3104 3102 3100 3096 3092 3091 3090 3087 3085 3085 3085 3084 3082 3081
3139 3139 3137 3135 3134 3132 3129 3125 3122 3120 3117 3114 3111 3107 3106 3102 3099 3093 3090 3091 3091 3090 3085 3081 3080 3080 3079 3077 3075 3074 3073 3071
3137 3136 3134 3133 3131 3129 3126 3122 3118 3114 3111 3108 3104 3101 3098 3094 3092 3088 3083 3080 3078 3076 3077 3074 3070 3069 3069 3069 3068 3065 3063 3061
3134 3132 3130 3128 3126 3123 3120 3116 3111 3106 3103 3101 3097 3092 3088 3088 3084 3080 3076 3072 3070 3067 3064 3062 3062 3060 3059 3059 3059 3055 3052 3051
3126 3125 3123 3120 3118 3117 3114 3112 3108 3103 3097 3092 3090 3089 3084 3080 3078 3076 3071 3067 3065 3063 3059 3054 3052 3050 3047 3047 3045 3046 3043 3040
3124 3122 3119 3116 3113 3111 3109 3107 3106 3103 3098 3091 3085 3080 3078 3076 3072 3068 3065 3061 3057 3054 3050 3046 3043 3040 3038 3036 3035 3033 3032 3029
3119 3117 3114 3111 3108 3104 3102 3099 3097 3093 3089 3085 3080 3074 3070 3066 3064 3060 3057 3052 3048 3045 3041 3037 3035 3033 3030 3026 3024 3022 3019 3019
3114 3111 3108 3104 3100 3097 3094 3091 3088 3085 3079 3074 3069 3064 3059 3055 3052 3049 3046 3043 3039 3034 3030 3027 3025 3022 3017 3014 3012 3011 3010 3008
3113 3108 3104 3099 3094 3090 3088 3086 3081 3077 3073 3066 3060 3055 3050 3045 3041 3037 3033 3031 3027 3021 3018 3013 3009 3007 3004 3005 3003 3001 2998 2996
3108 3104 3098 3093 3088 3084 3080 3078 3073 3066 3062 3055 3051 3046 3040 3034 3030 3025 3021 3017 3012 3010 3007 3002 2999 2997 2997 2993 2989 2987 2985 2982
3102 3097 3091 3085 3081 3079 3075 3070 3062 3055 3049 3044 3039 3034 3028 3023 3019 3015 3010 3004 3001 2997 2995 2993 2990 2987 2983 2980 2978 2976 2973 2970
3095 3090 3085 3079 3074 3071 3065 3058 3052 3044 3038 3033 3029 3024 3017 3011 3007 3003 2998 2996 2991 2989 2985 2981 2978 2974 2972 2969 2967 2964 2960 2956
3088 3084 3079 3074 3068 3062 3055 3049 3041 3033 3026 3020 3014 3008 3003 2999 2995 2992 2989 2986 2982 2978 2974 2970 2967 2964 2961 2958 2954 2951 2946 2942
3085 3080 3074 3067 3058 3050 3044 3038 3031 3022 3015 3008 3001 2996 2991 2987 2983 2981 2979 2976 2972 2968 2964 2961 2958 2954 2950 2946 2942 2936 2932 2929
3076 3070 3063 3056 3049 3042 3035 3027 3020 3013 3003 2996 2989 2985 2981 2978 2974 2971 2969 2966 2962 2959 2955 2952 2948 2944 2939 2933 2928 2923 2919 2916
3064 3057 3050 3045 3039 3031 3025 3017 3009 3000 2992 2985 2981 2977 2972 2968 2964 2962 2961 2957 2954 2950 2946 2942 2936 2932 2926 2920 2914 2910 2905 2901
3054 3048 3041 3034 3027 3021 3013 3004 2995 2988 2983 2977 2971 2967 2964 2961 2959 2957 2953 2949 2946 2941 2936 2931 2925 2920 2914 2909 2902 2896 2892 2888
3046 3038 3030 3023 3016 3007 3000 2992 2983 2977 2973 2969 2965 2962 2959 2954 2950 2947 2945 2941 2937 2932 2926 2920 2915 2909 2903 2897 2891 2885 2879 2874
3036 3029 3023 3015 3006 2998 2989 2981 2973 2967 2963 2960 2957 2954 2950 2947 2945 2942 2938 2933 2928 2922 2916 2911 2904 2899 2893 2886 2880 2873 2866 2861